EWG5243 EDDP-EDDL

Flight info

Callsign EWG5243
Flight time 0h 54m
Altitude 20000
Route ORTAG5E ORTAG Q230 WRB T854 DOMUX DOMUX1A
Aircraft A320/M-SDE3FGHIRWY/LB1

Departure

Time 2026-05-08 04:59
Airport Leipzig/Halle Airport (EDDP)

Arrival

Time 2026-05-08 05:54
Airport Düsseldorf Airport (EDDL)
Time Latitude Longitude Altitude Speed Heading
2026-05-08 04:39 51.41927 12.21958 436 ft 0 kts 15°
2026-05-08 04:47 51.41910 12.21951 426 ft 3 kts 15°
2026-05-08 04:47 51.41887 12.21941 429 ft 3 kts 13°
2026-05-08 04:48 51.41863 12.21933 427 ft 3 kts
2026-05-08 04:48 51.41839 12.21930 429 ft 3 kts 351°
2026-05-08 04:48 51.41821 12.21942 426 ft 2 kts 289°
2026-05-08 04:48 51.41820 12.21945 426 ft 0 kts 287°
2026-05-08 04:54 51.41821 12.21943 436 ft 0 kts 287°
2026-05-08 04:54 51.41827 12.21908 424 ft 7 kts 286°
2026-05-08 04:54 51.41840 12.21836 429 ft 7 kts 285°
2026-05-08 04:54 51.41854 12.21750 429 ft 9 kts 284°
2026-05-08 04:55 51.41872 12.21639 434 ft 12 kts 285°
2026-05-08 04:55 51.41897 12.21494 424 ft 16 kts 285°
2026-05-08 04:55 51.41930 12.21295 428 ft 21 kts 285°
2026-05-08 04:55 51.41967 12.21088 424 ft 15 kts 286°
2026-05-08 04:56 51.42012 12.20926 423 ft 18 kts 328°
2026-05-08 04:56 51.42092 12.20937 426 ft 19 kts 15°
2026-05-08 04:56 51.42153 12.20964 420 ft 21 kts 15°
2026-05-08 04:56 51.42296 12.21026 421 ft 21 kts 15°
2026-05-08 04:57 51.42442 12.21091 425 ft 23 kts 15°
2026-05-08 04:57 51.42599 12.21159 436 ft 21 kts 14°
2026-05-08 04:57 51.42750 12.21224 431 ft 24 kts 15°
2026-05-08 04:57 51.42875 12.21280 435 ft 18 kts 20°
2026-05-08 04:58 51.42973 12.21417 421 ft 20 kts 46°
2026-05-08 04:58 51.43080 12.21589 425 ft 21 kts 44°
2026-05-08 04:58 51.43129 12.21686 427 ft 4 kts 78°
2026-05-08 04:58 51.43130 12.21697 431 ft 0 kts 84°
2026-05-08 04:59 51.43132 12.21724 432 ft 22 kts 84°
2026-05-08 04:59 51.43169 12.22511 429 ft 115 kts 86°
2026-05-08 04:59 51.43241 12.24131 622 ft 168 kts 83°
2026-05-08 04:59 51.43348 12.26155 1507 ft 190 kts 83°
2026-05-08 05:00 51.43567 12.28291 2408 ft 198 kts 70°
2026-05-08 05:00 51.44341 12.30152 3251 ft 207 kts 43°
2026-05-08 05:00 51.45145 12.31002 3805 ft 212 kts 24°
2026-05-08 05:00 51.46591 12.31498 4664 ft 217 kts
2026-05-08 05:01 51.48118 12.31274 5673 ft 222 kts 345°
2026-05-08 05:01 51.49494 12.30191 6868 ft 220 kts 327°
2026-05-08 05:01 51.50765 12.28844 7988 ft 220 kts 329°
2026-05-08 05:01 51.52100 12.27539 8918 ft 229 kts 329°
2026-05-08 05:02 51.53490 12.26205 9943 ft 235 kts 329°
2026-05-08 05:02 51.54906 12.24848 10902 ft 240 kts 329°
2026-05-08 05:02 51.56318 12.23378 11862 ft 244 kts 327°
2026-05-08 05:02 51.57772 12.21904 12835 ft 249 kts 327°
2026-05-08 05:03 51.59159 12.20192 13800 ft 255 kts 315°
2026-05-08 05:03 51.60199 12.17864 14640 ft 261 kts 294°
2026-05-08 05:03 51.60624 12.14953 15171 ft 278 kts 269°
2026-05-08 05:03 51.60509 12.11791 15896 ft 287 kts 265°
2026-05-08 05:04 51.60367 12.08570 16756 ft 291 kts 264°
2026-05-08 05:04 51.60228 12.05309 17636 ft 294 kts 264°
2026-05-08 05:04 51.60088 12.02003 18488 ft 298 kts 264°
2026-05-08 05:04 51.59950 11.98653 19253 ft 302 kts 264°
2026-05-08 05:05 51.59813 11.95269 19899 ft 306 kts 264°
2026-05-08 05:05 51.59676 11.91848 20106 ft 306 kts 264°
2026-05-08 05:05 51.59538 11.88437 20147 ft 305 kts 264°
2026-05-08 05:05 51.59400 11.85033 20148 ft 305 kts 264°
2026-05-08 05:06 51.59262 11.81642 20146 ft 305 kts 264°
2026-05-08 05:06 51.59120 11.78237 20146 ft 305 kts 264°
2026-05-08 05:06 51.58975 11.74837 20150 ft 305 kts 264°
2026-05-08 05:06 51.58830 11.71440 20149 ft 304 kts 264°
2026-05-08 05:07 51.58686 11.68043 20149 ft 305 kts 264°
2026-05-08 05:07 51.58542 11.64651 20150 ft 304 kts 264°
2026-05-08 05:07 51.58395 11.61251 20152 ft 305 kts 264°
2026-05-08 05:07 51.58247 11.57853 20151 ft 305 kts 264°
2026-05-08 05:08 51.58098 11.54456 20150 ft 305 kts 264°
2026-05-08 05:08 51.57948 11.51055 20145 ft 305 kts 264°
2026-05-08 05:08 51.57798 11.47656 20149 ft 305 kts 264°
2026-05-08 05:08 51.57648 11.44257 20153 ft 305 kts 264°
2026-05-08 05:09 51.57496 11.40857 20153 ft 305 kts 264°
2026-05-08 05:09 51.57344 11.37454 20151 ft 305 kts 264°
2026-05-08 05:09 51.57189 11.34056 20156 ft 305 kts 264°
2026-05-08 05:09 51.57034 11.30658 20154 ft 305 kts 263°
2026-05-08 05:10 51.56877 11.27258 20157 ft 305 kts 264°
2026-05-08 05:10 51.56562 11.20459 20161 ft 305 kts 264°
2026-05-08 05:10 51.56400 11.17057 20161 ft 305 kts 264°
2026-05-08 05:11 51.56239 11.13658 20161 ft 305 kts 264°
2026-05-08 05:11 51.56076 11.10263 20162 ft 305 kts 264°
2026-05-08 05:11 51.55911 11.06867 20163 ft 305 kts 264°
2026-05-08 05:11 51.55744 11.03479 20162 ft 305 kts 264°
2026-05-08 05:12 51.55579 11.00130 20157 ft 304 kts 264°
2026-05-08 05:12 51.55414 10.96697 20152 ft 304 kts 264°
2026-05-08 05:12 51.55253 10.93352 20161 ft 304 kts 264°
2026-05-08 05:12 51.55088 10.89969 20159 ft 304 kts 264°
2026-05-08 05:13 51.54920 10.86580 20153 ft 304 kts 264°
2026-05-08 05:13 51.54752 10.83203 20155 ft 303 kts 264°
2026-05-08 05:13 51.54582 10.79782 20158 ft 303 kts 264°
2026-05-08 05:13 51.54412 10.76402 20159 ft 303 kts 264°
2026-05-08 05:14 51.54237 10.73021 20155 ft 303 kts 264°
2026-05-08 05:14 51.54065 10.69696 20158 ft 303 kts 264°
2026-05-08 05:14 51.53891 10.66312 20162 ft 304 kts 264°
2026-05-08 05:14 51.53720 10.62931 20163 ft 304 kts 265°
2026-05-08 05:15 51.53617 10.59543 20153 ft 304 kts 267°
2026-05-08 05:15 51.53568 10.56147 20155 ft 304 kts 268°
2026-05-08 05:15 51.53539 10.52747 20163 ft 304 kts 268°
2026-05-08 05:15 51.53510 10.49353 20163 ft 304 kts 268°
2026-05-08 05:16 51.53477 10.45957 20158 ft 304 kts 268°
2026-05-08 05:16 51.53437 10.42572 20161 ft 304 kts 268°
2026-05-08 05:16 51.53390 10.39182 20160 ft 303 kts 268°
2026-05-08 05:16 51.53335 10.35799 20160 ft 303 kts 268°
2026-05-08 05:17 51.53274 10.32366 20158 ft 303 kts 267°
2026-05-08 05:17 51.53212 10.28982 20159 ft 303 kts 268°
2026-05-08 05:17 51.53151 10.25596 20160 ft 303 kts 268°
2026-05-08 05:17 51.53091 10.22214 20160 ft 303 kts 268°
2026-05-08 05:18 51.53029 10.18832 20158 ft 303 kts 268°
2026-05-08 05:18 51.52965 10.15452 20159 ft 303 kts 268°
2026-05-08 05:18 51.52900 10.12077 20157 ft 303 kts 268°
2026-05-08 05:18 51.52837 10.08738 20158 ft 303 kts 268°
2026-05-08 05:19 51.52774 10.05372 20152 ft 303 kts 268°
2026-05-08 05:19 51.52716 10.02314 20154 ft 302 kts 268°
2026-05-08 05:19 51.52651 9.98937 20154 ft 302 kts 268°
2026-05-08 05:19 51.52584 9.95562 20158 ft 302 kts 267°
2026-05-08 05:20 51.52515 9.92184 20150 ft 302 kts 267°
2026-05-08 05:20 51.52447 9.88812 20158 ft 302 kts 267°
2026-05-08 05:20 51.52379 9.85441 20156 ft 302 kts 267°
2026-05-08 05:20 51.52307 9.82070 20155 ft 302 kts 267°
2026-05-08 05:21 51.52232 9.78694 20152 ft 302 kts 267°
2026-05-08 05:21 51.52157 9.75321 20157 ft 302 kts 267°
2026-05-08 05:21 51.52083 9.71955 20153 ft 302 kts 267°
2026-05-08 05:21 51.52007 9.68576 20153 ft 302 kts 267°
2026-05-08 05:22 51.51930 9.65200 20152 ft 302 kts 267°
2026-05-08 05:22 51.51854 9.61831 20154 ft 302 kts 267°
2026-05-08 05:22 51.51778 9.58456 20154 ft 302 kts 267°
2026-05-08 05:22 51.51699 9.55081 20157 ft 302 kts 267°
2026-05-08 05:23 51.51618 9.51706 20151 ft 302 kts 267°
2026-05-08 05:23 51.51536 9.48334 20155 ft 302 kts 267°
2026-05-08 05:23 51.51452 9.44961 20155 ft 302 kts 267°
2026-05-08 05:23 51.51368 9.41591 20157 ft 302 kts 267°
2026-05-08 05:24 51.51285 9.38221 20151 ft 302 kts 267°
2026-05-08 05:24 51.51202 9.34852 20151 ft 302 kts 267°
2026-05-08 05:24 51.51116 9.31482 20156 ft 302 kts 267°
2026-05-08 05:24 51.51027 9.28111 20153 ft 302 kts 267°
2026-05-08 05:25 51.50937 9.24746 20153 ft 302 kts 267°
2026-05-08 05:25 51.50849 9.21377 20156 ft 302 kts 267°
2026-05-08 05:25 51.50759 9.18012 20155 ft 302 kts 267°
2026-05-08 05:25 51.50667 9.14647 20156 ft 302 kts 267°
2026-05-08 05:26 51.50575 9.11284 20153 ft 301 kts 267°
2026-05-08 05:26 51.50542 9.07925 20155 ft 302 kts 270°
2026-05-08 05:26 51.50579 9.04554 20156 ft 302 kts 271°
2026-05-08 05:26 51.50642 9.01190 20157 ft 302 kts 271°
2026-05-08 05:27 51.50708 8.97823 20152 ft 301 kts 271°
2026-05-08 05:27 51.50768 8.94464 20151 ft 301 kts 271°
2026-05-08 05:27 51.50819 8.91106 20152 ft 301 kts 271°
2026-05-08 05:27 51.50865 8.87747 20152 ft 301 kts 271°
2026-05-08 05:28 51.50908 8.84391 20149 ft 301 kts 270°
2026-05-08 05:28 51.50948 8.81039 20149 ft 301 kts 271°
2026-05-08 05:28 51.50986 8.77683 20146 ft 300 kts 270°
2026-05-08 05:28 51.51020 8.74331 20149 ft 300 kts 270°
2026-05-08 05:29 51.51053 8.70980 20145 ft 300 kts 270°
2026-05-08 05:29 51.51087 8.67626 20146 ft 301 kts 270°
2026-05-08 05:29 51.51120 8.64269 20146 ft 300 kts 270°
2026-05-08 05:29 51.51153 8.60921 20146 ft 300 kts 270°
2026-05-08 05:30 51.51184 8.57571 20145 ft 300 kts 270°
2026-05-08 05:30 51.51214 8.54218 20147 ft 300 kts 270°
2026-05-08 05:30 51.51241 8.50863 20145 ft 300 kts 270°
2026-05-08 05:30 51.51266 8.47518 20149 ft 300 kts 270°
2026-05-08 05:31 51.51291 8.44160 20145 ft 300 kts 270°
2026-05-08 05:31 51.51317 8.40809 20145 ft 300 kts 270°
2026-05-08 05:31 51.51342 8.37629 20144 ft 300 kts 271°
2026-05-08 05:31 51.51369 8.34286 20145 ft 300 kts 270°
2026-05-08 05:32 51.51396 8.30924 20143 ft 300 kts 270°
2026-05-08 05:32 51.51421 8.27571 20144 ft 300 kts 270°
2026-05-08 05:32 51.51443 8.24219 20143 ft 300 kts 270°
2026-05-08 05:32 51.51462 8.20867 20144 ft 300 kts 270°
2026-05-08 05:33 51.51479 8.17508 20140 ft 300 kts 270°
2026-05-08 05:33 51.51495 8.14152 20141 ft 300 kts 270°
2026-05-08 05:33 51.51512 8.10802 20143 ft 300 kts 270°
2026-05-08 05:33 51.51424 8.07455 20144 ft 301 kts 263°
2026-05-08 05:34 51.50977 8.04184 20143 ft 301 kts 255°
2026-05-08 05:34 51.50408 8.00951 20146 ft 301 kts 255°
2026-05-08 05:34 51.49840 7.97721 20145 ft 301 kts 255°
2026-05-08 05:34 51.49272 7.94487 20148 ft 301 kts 255°
2026-05-08 05:35 51.48703 7.91258 20143 ft 301 kts 255°
2026-05-08 05:35 51.48133 7.88030 20149 ft 301 kts 255°
2026-05-08 05:35 51.47563 7.84811 20143 ft 301 kts 255°
2026-05-08 05:35 51.46985 7.81579 20149 ft 301 kts 254°
2026-05-08 05:36 51.46407 7.78359 20149 ft 301 kts 255°
2026-05-08 05:36 51.45831 7.75130 20148 ft 301 kts 255°
2026-05-08 05:36 51.45258 7.71919 20152 ft 301 kts 255°
2026-05-08 05:36 51.44682 7.68691 20147 ft 301 kts 254°
2026-05-08 05:37 51.44105 7.65464 20147 ft 301 kts 254°
2026-05-08 05:37 51.43527 7.62252 20148 ft 301 kts 254°
2026-05-08 05:37 51.42947 7.59048 20092 ft 296 kts 254°
2026-05-08 05:37 51.42377 7.55906 19720 ft 292 kts 254°
2026-05-08 05:38 51.41817 7.52812 19128 ft 287 kts 255°
2026-05-08 05:38 51.41279 7.49732 18447 ft 286 kts 255°
2026-05-08 05:38 51.40757 7.46671 17698 ft 284 kts 255°
2026-05-08 05:38 51.40245 7.43640 17008 ft 281 kts 255°
2026-05-08 05:39 51.39731 7.40605 16533 ft 283 kts 255°
2026-05-08 05:39 51.39211 7.37558 16135 ft 284 kts 255°
2026-05-08 05:39 51.38689 7.34518 15785 ft 283 kts 255°
2026-05-08 05:39 51.38166 7.31485 15582 ft 282 kts 255°
2026-05-08 05:40 51.37643 7.28466 15440 ft 281 kts 255°
2026-05-08 05:40 51.37120 7.25452 15337 ft 281 kts 255°
2026-05-08 05:40 51.36599 7.22439 15276 ft 281 kts 255°
2026-05-08 05:40 51.36085 7.19470 15239 ft 281 kts 255°
2026-05-08 05:41 51.35561 7.16462 15234 ft 281 kts 255°
2026-05-08 05:41 51.35037 7.13454 15239 ft 281 kts 255°
2026-05-08 05:41 51.34513 7.10450 15231 ft 280 kts 255°
2026-05-08 05:41 51.33988 7.07448 15211 ft 280 kts 255°
2026-05-08 05:42 51.33459 7.04448 15204 ft 280 kts 255°
2026-05-08 05:42 51.32928 7.01452 14498 ft 278 kts 255°
2026-05-08 05:42 51.32404 6.98491 13418 ft 276 kts 255°
2026-05-08 05:42 51.31882 6.95546 12292 ft 274 kts 254°
2026-05-08 05:43 51.31366 6.92633 11227 ft 271 kts 254°
2026-05-08 05:43 51.30852 6.89732 9868 ft 277 kts 253°
2026-05-08 05:43 51.30329 6.86773 9020 ft 269 kts 254°
2026-05-08 05:43 51.29995 6.84873 8778 ft 258 kts 255°
2026-05-08 05:44 51.29509 6.82121 8422 ft 257 kts 255°
2026-05-08 05:44 51.29022 6.79374 8156 ft 257 kts 255°
2026-05-08 05:44 51.28540 6.76652 7921 ft 250 kts 255°
2026-05-08 05:44 51.28068 6.74033 7465 ft 242 kts 254°
2026-05-08 05:45 51.27576 6.71483 6920 ft 239 kts 253°
2026-05-08 05:45 51.27076 6.68961 6376 ft 237 kts 253°
2026-05-08 05:45 51.26575 6.66459 5811 ft 236 kts 253°
2026-05-08 05:45 51.26077 6.63970 5340 ft 235 kts 253°
2026-05-08 05:46 51.25587 6.61529 4897 ft 234 kts 253°
2026-05-08 05:46 51.25092 6.59062 4451 ft 233 kts 253°
2026-05-08 05:46 51.24610 6.56669 4273 ft 216 kts 253°
2026-05-08 05:46 51.24174 6.54487 4198 ft 198 kts 253°
2026-05-08 05:47 51.23764 6.52428 4116 ft 192 kts 253°
2026-05-08 05:47 51.23361 6.50406 4037 ft 191 kts 253°
2026-05-08 05:47 51.22957 6.48403 3975 ft 190 kts 250°
2026-05-08 05:47 51.22249 6.46639 3922 ft 191 kts 226°
2026-05-08 05:48 51.21135 6.45496 3863 ft 192 kts 201°
2026-05-08 05:48 51.19824 6.45196 3816 ft 192 kts 176°
2026-05-08 05:48 51.18546 6.45780 3763 ft 192 kts 152°
2026-05-08 05:48 51.17529 6.47128 3725 ft 191 kts 127°
2026-05-08 05:49 51.16940 6.49003 3670 ft 190 kts 103°
2026-05-08 05:49 51.16875 6.51082 3628 ft 188 kts 79°
2026-05-08 05:49 51.17335 6.53010 3584 ft 187 kts 56°
2026-05-08 05:49 51.18118 6.54664 3421 ft 187 kts 51°
2026-05-08 05:50 51.18907 6.56299 3123 ft 185 kts 51°
2026-05-08 05:50 51.19690 6.57927 2916 ft 185 kts 52°
2026-05-08 05:50 51.20473 6.59554 2673 ft 185 kts 52°
2026-05-08 05:50 51.21215 6.61101 2441 ft 166 kts 52°
2026-05-08 05:51 51.21881 6.62491 2220 ft 151 kts 52°
2026-05-08 05:51 51.22494 6.63769 2021 ft 140 kts 52°
2026-05-08 05:51 51.23054 6.64937 1872 ft 127 kts 52°
2026-05-08 05:51 51.23583 6.66038 1682 ft 123 kts 52°
2026-05-08 05:52 51.24100 6.67107 1416 ft 121 kts 53°
2026-05-08 05:52 51.24610 6.68162 1153 ft 119 kts 53°
2026-05-08 05:52 51.25116 6.69204 998 ft 118 kts 53°
2026-05-08 05:52 51.25614 6.70232 838 ft 117 kts 52°
2026-05-08 05:53 51.26101 6.71262 724 ft 116 kts 53°
2026-05-08 05:53 51.26578 6.72294 603 ft 115 kts 52°
2026-05-08 05:53 51.27073 6.73306 472 ft 115 kts 51°
2026-05-08 05:53 51.27557 6.74322 322 ft 115 kts 52°
2026-05-08 05:54 51.28036 6.75341 168 ft 114 kts 52°
2026-05-08 05:54 51.28489 6.76297 128 ft 91 kts 53°
2026-05-08 05:54 51.28774 6.76900 126 ft 49 kts 52°
2026-05-08 05:54 51.28924 6.77214 125 ft 30 kts 53°
2026-05-08 05:55 51.29013 6.77420 128 ft 13 kts 66°
2026-05-08 05:55 51.29013 6.77551 127 ft 11 kts 118°
2026-05-08 05:55 51.28970 6.77612 127 ft 5 kts 142°
2026-05-08 05:55 51.28967 6.77617 126 ft 4 kts 142°
2026-05-08 05:56 51.28904 6.77693 128 ft 13 kts 143°
2026-05-08 05:56 51.28826 6.77789 127 ft 13 kts 142°
2026-05-08 05:56 51.28771 6.77855 127 ft 9 kts 145°
2026-05-08 05:56 51.28716 6.77836 126 ft 9 kts 228°
2026-05-08 05:57 51.28677 6.77755 115 ft 10 kts 234°
2026-05-08 05:57 51.28666 6.77652 129 ft 10 kts 275°
2026-05-08 05:57 51.28636 6.77557 126 ft 10 kts 232°
2026-05-08 05:57 51.28593 6.77467 129 ft 11 kts 232°
2026-05-08 05:58 51.28548 6.77371 126 ft 11 kts 235°
2026-05-08 05:58 51.28504 6.77269 126 ft 11 kts 234°
2026-05-08 05:58 51.28470 6.77198 126 ft 2 kts 230°
2026-05-08 05:58 51.28452 6.77190 128 ft 3 kts 176°
2026-05-08 05:59 51.28433 6.77207 128 ft 4 kts 142°
2026-05-08 05:59 51.28413 6.77232 126 ft 2 kts 142°
2026-05-08 05:59 51.28413 6.77233 128 ft 0 kts 142°